Hourly Weather Barletta

Today, 8 May, Saturday

Time Temperature Precipitation Wind Pressure Humidity
00:00 +15°C° 0 mm 5 mps 757 mmHg 64%
01:00 +15°C° 0 mm 5 mps 758 mmHg 65%
02:00 +14°C° 0 mm 5 mps 758 mmHg 67%
03:00 +14°C° 0 mm 5 mps 758 mmHg 68%
04:00 +14°C° 0 mm 4 mps 758 mmHg 70%
05:00 +15°C° 0 mm 4 mps 759 mmHg 66%
06:00 +18°C° 0 mm 4 mps 759 mmHg 63%
07:00 +19°C° 0 mm 4 mps 760 mmHg 61%
08:00 +20°C° 0 mm 4 mps 760 mmHg 57%
09:00 +21°C° 0 mm 4 mps 760 mmHg 54%
10:00 +23°C° 0 mm 4 mps 761 mmHg 50%
11:00 +23°C° 0 mm 5 mps 761 mmHg 49%
12:00 +23°C° 0 mm 5 mps 761 mmHg 49%
13:00 +23°C° 0 mm 5 mps 761 mmHg 49%
14:00 +23°C° 0 mm 5 mps 761 mmHg 51%
15:00 +22°C° 0 mm 5 mps 761 mmHg 54%
16:00 +22°C° 0 mm 5 mps 761 mmHg 57%
17:00 +20°C° 0 mm 4 mps 762 mmHg 62%
18:00 +18°C° 0 mm 3 mps 762 mmHg 68%
19:00 +17°C° 0 mm 3 mps 762 mmHg 73%
20:00 +16°C° 0 mm 3 mps 762 mmHg 76%
21:00 +16°C° 0 mm 3 mps 763 mmHg 78%
22:00 +14°C° 0 mm 3 mps 763 mmHg 80%
23:00 +14°C° 0 mm 3 mps 763 mmHg 82%

Tomorrow, 9 May, Sunday

Time Temperature Precipitation Wind Pressure Humidity
00:00 +13°C° 0 mm 3 mps 763 mmHg 85%
01:00 +13°C° 0 mm 3 mps 763 mmHg 88%
02:00 +13°C° 0 mm 3 mps 763 mmHg 87%
03:00 +12°C° 0 mm 3 mps 763 mmHg 86%
04:00 +12°C° 0 mm 3 mps 763 mmHg 85%
05:00 +14°C° 0 mm 3 mps 763 mmHg 77%
06:00 +17°C° 0 mm 2 mps 763 mmHg 68%
07:00 +18°C° 0 mm 2 mps 763 mmHg 60%
08:00 +20°C° 0 mm 2 mps 763 mmHg 53%
09:00 +23°C° 0 mm 2 mps 763 mmHg 45%
10:00 +25°C° 0 mm 2 mps 763 mmHg 38%
11:00 +25°C° 0 mm 2 mps 763 mmHg 36%
12:00 +26°C° 0 mm 3 mps 763 mmHg 34%
13:00 +27°C° 0 mm 4 mps 763 mmHg 33%
14:00 +26°C° 0 mm 4 mps 762 mmHg 34%
15:00 +26°C° 0 mm 4 mps 762 mmHg 36%
16:00 +25°C° 0 mm 5 mps 762 mmHg 38%
17:00 +22°C° 0 mm 4 mps 762 mmHg 46%
18:00 +21°C° 0 mm 4 mps 762 mmHg 53%
19:00 +19°C° 0 mm 3 mps 762 mmHg 61%
20:00 +18°C° 0 mm 3 mps 762 mmHg 62%
21:00 +18°C° 0 mm 3 mps 762 mmHg 63%
22:00 +17°C° 0 mm 2 mps 762 mmHg 63%
23:00 +17°C° 0 mm 2 mps 762 mmHg 62%

Day after tomorrow, 10 May, Monday

Time Temperature Precipitation Wind Pressure Humidity
00:00 +16°C° 0 mm 2 mps 762 mmHg 61%
01:00 +16°C° 0 mm 2 mps 762 mmHg 59%
02:00 +16°C° 0 mm 1 mps 762 mmHg 60%
03:00 +16°C° 0 mm 1 mps 762 mmHg 61%
04:00 +16°C° 0 mm 1 mps 762 mmHg 62%
05:00 +18°C° 0 mm 1 mps 762 mmHg 58%
06:00 +20°C° 0 mm 1 mps 762 mmHg 55%
07:00 +21°C° 0 mm 1 mps 762 mmHg 52%
08:00 +23°C° 0 mm 1 mps 762 mmHg 48%
09:00 +25°C° 0 mm 2 mps 762 mmHg 43%
10:00 +27°C° 0 mm 2 mps 762 mmHg 39%
11:00 +28°C° 0 mm 3 mps 761 mmHg 38%
12:00 +28°C° 0 mm 4 mps 761 mmHg 38%
13:00 +29°C° 0 mm 4 mps 761 mmHg 37%
14:00 +29°C° 0 mm 4 mps 760 mmHg 39%
15:00 +28°C° 0 mm 5 mps 760 mmHg 41%
16:00 +28°C° 0 mm 5 mps 760 mmHg 43%
17:00 +26°C° 0 mm 4 mps 760 mmHg 52%
18:00 +23°C° 0 mm 4 mps 760 mmHg 60%
19:00 +20°C° 0 mm 3 mps 760 mmHg 69%
20:00 +20°C° 0 mm 3 mps 760 mmHg 71%
21:00 +19°C° 0 mm 2 mps 760 mmHg 72%
22:00 +18°C° 0 mm 2 mps 760 mmHg 74%
23:00 +18°C° 0 mm 2 mps 760 mmHg 73%

11 May, Tuesday

Time Temperature Precipitation Wind Pressure Humidity
00:00 +18°C° 0 mm 2 mps 760 mmHg 72%
01:00 +19°C° 0 mm 1 mps 759 mmHg 71%
02:00 +19°C° 0 mm 1 mps 759 mmHg 71%
03:00 +19°C° 0 mm 1 mps 759 mmHg 71%
04:00 +19°C° 0 mm 1 mps 759 mmHg 71%
05:00 +20°C° 0 mm 1 mps 758 mmHg 67%
06:00 +21°C° 0 mm 1 mps 758 mmHg 63%
07:00 +23°C° 0 mm 1 mps 758 mmHg 59%
08:00 +25°C° 0 mm 2 mps 758 mmHg 52%
09:00 +27°C° 0 mm 2 mps 758 mmHg 46%
10:00 +29°C° 0 mm 3 mps 758 mmHg 39%
11:00 +30°C° 0 mm 3 mps 757 mmHg 37%
12:00 +30°C° 0 mm 4 mps 757 mmHg 34%
13:00 +32°C° 0 mm 4 mps 756 mmHg 32%
14:00 +32°C° 0 mm 4 mps 756 mmHg 34%
15:00 +30°C° 0 mm 4 mps 755 mmHg 37%
16:00 +30°C° 0 mm 4 mps 755 mmHg 39%
17:00 +28°C° 0 mm 4 mps 755 mmHg 46%
18:00 +26°C° 0 mm 3 mps 754 mmHg 53%
19:00 +24°C° 0 mm 3 mps 754 mmHg 60%
20:00 +22°C° 0 mm 3 mps 754 mmHg 62%
21:00 +21°C° 0 mm 3 mps 754 mmHg 64%
22:00 +20°C° 0 mm 4 mps 754 mmHg 66%
23:00 +20°C° 0 mm 4 mps 754 mmHg 65%

12 May, Wednesday

Time Temperature Precipitation Wind Pressure Humidity
00:00 +19°C° 0 mm 5 mps 754 mmHg 64%
01:00 +19°C° 0 mm 6 mps 754 mmHg 63%
02:00 +17°C° 0 mm 5 mps 754 mmHg 66%
03:00 +17°C° 0 mm 5 mps 754 mmHg 69%
04:00 +16°C° 0 mm 5 mps 754 mmHg 72%
05:00 +17°C° 0 mm 5 mps 754 mmHg 66%
06:00 +17°C° 0 mm 6 mps 754 mmHg 60%
07:00 +18°C° 0 mm 7 mps 755 mmHg 54%
08:00 +20°C° 0 mm 7 mps 755 mmHg 49%
09:00 +22°C° 0 mm 7 mps 755 mmHg 43%
10:00 +23°C° 0 mm 8 mps 755 mmHg 38%
11:00 +24°C° 0 mm 8 mps 754 mmHg 37%
12:00 +24°C° 0 mm 8 mps 754 mmHg 36%
13:00 +26°C° 0 mm 8 mps 754 mmHg 35%
14:00 +24°C° 0 mm 8 mps 754 mmHg 36%
15:00 +24°C° 0 mm 8 mps 754 mmHg 38%
16:00 +23°C° 0 mm 8 mps 754 mmHg 40%
17:00 +21°C° 0 mm 7 mps 754 mmHg 45%
18:00 +20°C° 0 mm 7 mps 754 mmHg 51%
19:00 +17°C° 0 mm 6 mps 754 mmHg 57%
20:00 +16°C° 0 mm 6 mps 755 mmHg 60%
21:00 +15°C° 0 mm 6 mps 755 mmHg 62%
22:00 +13°C° 0 mm 6 mps 755 mmHg 65%
23:00 +13°C° 0 mm 6 mps 755 mmHg 65%

13 May, Thursday

Time Temperature Precipitation Wind Pressure Humidity
00:00 +13°C° 0 mm 6 mps 754 mmHg 66%
01:00 +13°C° 0 mm 6 mps 754 mmHg 66%
02:00 +12°C° 0 mm 7 mps 754 mmHg 66%
03:00 +12°C° 0 mm 7 mps 754 mmHg 66%
04:00 +12°C° 0 mm 7 mps 754 mmHg 65%
05:00 +14°C° 0 mm 7 mps 754 mmHg 63%
06:00 +16°C° 0 mm 7 mps 754 mmHg 60%
07:00 +17°C° 0 mm 7 mps 754 mmHg 58%
08:00 +20°C° 0 mm 6 mps 754 mmHg 52%
09:00 +21°C° 0 mm 6 mps 754 mmHg 46%
10:00 +23°C° 0 mm 5 mps 754 mmHg 41%
11:00 +23°C° 0.1 mm 6 mps 754 mmHg 40%
12:00 +23°C° 0.1 mm 6 mps 754 mmHg 39%
13:00 +23°C° 0.1 mm 6 mps 754 mmHg 38%
14:00 +23°C° 0 mm 6 mps 754 mmHg 39%
15:00 +22°C° 0 mm 7 mps 754 mmHg 39%
16:00 +22°C° 0 mm 7 mps 754 mmHg 40%
17:00 +21°C° 0 mm 6 mps 754 mmHg 45%
18:00 +19°C° 0 mm 6 mps 754 mmHg 51%
19:00 +17°C° 0 mm 6 mps 755 mmHg 57%
20:00 +16°C° 0 mm 5 mps 755 mmHg 61%
21:00 +14°C° 0 mm 5 mps 755 mmHg 65%
22:00 +13°C° 0 mm 5 mps 755 mmHg 69%
23:00 +13°C° 0 mm 5 mps 755 mmHg 69%
Show more